Location: Redding Observatory
(29.1111°N, 81.3442°W)
Time: 21:05:10
(UTC-05:00)

Tiangong - Visible Passes

Search period start: 20 January 2022 00:00
Search period end: 30 January 2022 00:00
Orbit: 383 x 386 km, 41.5° (Epoch: 20 January)

Date Brightness Start Highest point End Pass type
(mag) Time Alt. Az. Time Alt. Az. Time Alt. Az.
22 Jan 3.4 19:38:41 10° SSW 19:39:51 18° SSW 19:39:51 18° SSW visible
23 Jan 3.2 18:40:08 10° S 18:41:59 15° SE 18:43:25 11° ESE visible
23 Jan 4.6 20:15:28 10° WSW 20:15:40 11° WSW 20:15:40 11° WSW visible
24 Jan 0.9 19:15:43 10° SW 19:18:52 71° SE 19:19:09 64° ESE visible
25 Jan 3.5 19:53:15 10° W 19:54:48 21° WNW 19:54:48 21° WNW visible
26 Jan 1.6 18:53:05 10° WSW 18:56:11 51° NNW 18:58:07 20° NE visible
27 Jan 3.3 19:31:12 10° WNW 19:33:28 18° NNW 19:33:34 18° NNW visible
28 Jan 2.7 18:30:42 10° W 18:33:28 27° NNW 18:36:15 10° NE visible
29 Jan 3.6 19:09:19 10° NW 19:10:50 13° NNW 19:12:01 11° N visible
